FW4302 Weather Reports


time (UTC)temp
F
wind
direction
speed
knots
gust
knots
rain 1hr
in
rain 24hr
in
rain mn
in
humidity
%
barometer
mb
20260505011517 71 46 0.9 7.8 0.00 0.00 0.00 36 1007.8
20260505010016 72 72 0.9 4.3 0.00 0.00 0.00 36 1007.8
20260505004517 72 123 3.5 8.7 0.00 0.00 0.00 35 1007.9
20260505003015 72 9 3.5 8.7 0.00 0.00 0.00 35 1007.9
20260505001516 72 136 4.3 8.7 0.00 0.00 0.00 33 1007.8
20260505000026 73 103 1.7 9.6 0.00 0.00 0.00 34 1008.0
20260504234512 73 54 0.9 9.6 0.00 0.00 0.00 31 1008.0
20260504233017 73 146 2.6 9.6 0.00 0.00 0.00 31 1008.0
20260504231522 73 346 1.7 10.4 0.00 0.00 0.00 33 1008.1
20260504230008 73 360 1.7 7.8 0.00 0.00 0.00 33 1008.2
20260504224508 73 165 1.7 7.0 0.00 0.00 0.00 34 1008.1
20260504223007 72 94 2.6 12.2 0.00 0.00 0.00 33 1008.1
20260504221506 73 69 4.3 11.3 0.00 0.00 0.00 35 1008.4
20260504220012 73 20 1.7 11.3 0.00 0.00 0.00 34 1008.4
20260504214503 73 146 2.6 7.8 0.00 0.00 0.00 34 1008.7
20260504213007 73 137 5.2 9.6 0.00 0.00 0.00 34 1008.8
20260504211600 72 82 2.6 8.7 0.00 0.00 0.00 35 1008.9
20260504210109 71 144 2.6 7.8 0.00 0.00 0.00 36 1009.1
20260504204603 71 331 3.5 8.7 0.00 0.00 0.00 36 1009.1
20260504203056 71 116 4.3 9.6 0.00 0.00 0.00 36 1009.2
20260504201554 70 344 2.6 8.7 0.00 0.00 0.00 38 1009.2
20260504200051 70 42 1.7 7.8 0.00 0.00 0.00 42 1009.2
20260504194605 69 210 3.5 9.6 0.00 0.00 0.00 37 1009.3
20260504193051 69 83 1.7 8.7 0.00 0.00 0.00 40 1009.3
20260504191550 69 146 2.6 7.8 0.00 0.00 0.00 40 1009.4
20260504190108 68 12 3.5 10.4 0.00 0.00 0.00 38 1009.5
20260504184555 68 40 2.6 8.7 0.00 0.00 0.00 40 1009.4
20260504183044 68 111 1.7 9.6 0.00 0.00 0.00 44 1009.4
20260504181546 68 50 1.7 10.4 0.00 0.00 0.00 41 1009.5
20260504180110 67 34 2.6 12.2 0.00 0.00 0.00 41 1009.6
20260504174539 66 360 2.6 8.7 0.00 0.00 0.00 40 1009.7
20260504173138 66 116 1.7 11.3 0.00 0.00 0.00 42 1009.7
20260504171536 65 355 1.7 11.3 0.00 0.00 0.00 41 1009.7
20260504120112 43 246 0.0 2.6 0.00 0.00 0.00 87 1008.4
20260504081525 48 282 0.9 2.6 0.00 0.00 0.00 79 1008.3
20260504050009 57 293 0.0 2.6 0.00 0.00 0.00 63 1008.0
20260504044508 60 244 1.7 2.6 0.00 0.00 0.00 50 1008.0
20260504043008 60 243 0.9 3.5 0.00 0.00 0.00 50 1008.1
20260504041507 61 227 1.7 3.5 0.00 0.00 0.00 50 1008.1
20260504040009 61 246 0.0 1.7 0.00 0.00 0.00 51 1008.0
20260504034506 62 233 0.0 2.6 0.00 0.00 0.00 49 1007.8
20260504033005 62 244 0.0 1.7 0.00 0.00 0.00 51 1007.7
20260504031504 63 256 0.9 2.6 0.00 0.00 0.00 49 1007.6
20260504030104 63 41 0.9 3.5 0.00 0.00 0.00 50 1007.8
20260504024604 63 315 0.0 1.7 0.00 0.00 0.00 51 1007.7
20260504023059 64 315 0.9 2.6 0.00 0.00 0.00 56 1007.6
20260504021610 66 315 0.9 1.7 0.00 0.00 0.00 49 1007.7
20260504014554 71 228 0.0 1.7 0.00 0.00 0.00 38 1007.9
20260504013057 74 248 0.9 3.5 0.00 0.00 0.00 35 1008.1